Location: Launois
(49.6535°N, 4.5395°E)
Time: 15:18:59
(UTC+00:00)

CZ-2D R/B - Pass Details

Date: 23 May 2024
Orbit: 790 x 843 km, 98.8° (Epoch: 18 June)

Event Time Altitude Azimuth Distance (km) Brightness Sun altitude
Rises 01:50:23 0° 15° (NNE) 3,414 6.9 -13.9°
Reaches altitude 10° 01:52:46 10° 16° (NNE) 2,473 5.9 -13.7°
Maximum altitude 01:58:17 84° 105° (ESE) 850 2.2 -13.2°
Enters shadow 02:02:44 16° 194° (SSW) 2,062 3.6 -12.8°
